Total_Precipitation_Accumulation
1.88 2.35 2.91 3.76 4.87 5.84 6.16 5.68 5.22 4.95 4.59 4.22 3.64 3.33 3.46 3.43 3.21 2.88 2.51 2.47 2.37 2.45 2.73 2.48 2.69 2.53 2.68 2.81 2.94 3.16 3.21 3.08 3.16 3.34 3.26 2.82 2.48 2.41 2.34 2.45 2.75 2.65 2.56
2.08 2.80 3.83 4.41 4.69 4.86 4.62 4.32 4.11 3.96 3.47 3.22 3.14 2.97 3.06 2.81 2.66 2.57 2.67 2.28 2.15 2.23 2.24 2.61 2.60 2.60 2.84 2.86 2.88 3.11 3.06 2.92 2.97 3.28 3.54 3.19 2.90 2.41 1.86 2.02 2.09 2.23 2.52
2.27 3.09 3.68 3.80 3.56 3.24 3.11 3.09 3.22 3.01 2.90 2.97 2.91 2.87 2.99 2.72 2.54 2.51 2.64 2.25 1.96 1.95 2.07 2.24 2.46 2.70 2.59 2.78 2.88 2.81 2.96 3.03 2.96 2.99 3.48 3.45 3.14 2.67 2.08 1.82 1.89 2.10 2.44
1.82 2.25 2.53 2.42 2.51 2.64 2.66 2.81 2.93 2.71 2.74 2.74 2.49 2.43 2.43 2.33 2.30 2.37 2.49 2.51 2.07 1.88 1.89 2.01 2.23 2.47 2.36 2.66 2.45 2.66 3.05 3.10 2.88 2.82 2.79 2.86 2.98 3.03 2.57 2.09 1.80 1.87 2.05
1.30 1.43 1.54 1.65 1.84 1.97 2.14 2.42 2.72 2.71 2.58 2.44 2.43 2.49 2.35 2.35 2.34 2.38 2.48 2.57 2.35 2.04 1.83 1.94 2.18 2.31 2.27 2.36 2.42 2.83 2.87 2.84 2.83 2.84 2.87 2.83 2.79 2.69 2.67 2.40 2.05 1.84 1.61
1.17 1.27 1.26 1.35 1.52 1.67 1.89 2.15 2.52 2.64 2.60 2.43 2.33 2.38 2.45 2.46 2.42 2.47 2.46 2.28 2.25 2.21 2.01 2.03 2.21 2.18 2.19 2.26 2.33 2.62 2.64 2.80 2.94 2.96 2.84 2.89 2.74 2.64 2.83 2.45 2.09 1.89 1.39
1.10 1.28 1.28 1.24 1.30 1.45 1.58 1.68 1.95 2.22 2.34 2.29 2.26 2.26 2.45 2.39 2.22 2.15 2.14 2.12 1.92 1.86 1.92 2.02 2.21 2.09 2.09 2.17 2.45 2.60 2.60 2.76 2.80 2.75 2.70 2.70 2.44 2.49 2.64 2.46 1.98 1.80 1.44
1.02 1.14 1.19 1.14 1.18 1.24 1.40 1.56 1.87 2.03 2.21 2.24 2.21 2.24 2.33 2.23 2.07 2.11 1.92 1.91 1.83 1.75 1.83 1.95 1.97 1.95 2.02 2.05 2.50 2.40 2.49 2.66 2.58 2.39 2.70 2.57 2.24 2.44 2.56 2.59 2.69 2.30 1.92
0.85 0.96 1.01 1.15 1.22 1.19 1.33 1.48 1.75 2.09 2.33 2.42 2.47 2.38 2.37 2.37 2.32 2.25 2.00 1.80 1.92 1.81 1.90 1.99 2.00 2.03 2.20 2.36 2.59 2.42 2.46 2.62 2.44 2.44 2.69 2.53 2.29 2.37 2.43 2.63 2.94 2.97 2.49
0.84 1.05 1.22 1.30 1.19 1.06 1.17 1.30 1.58 2.09 2.38 2.57 2.52 2.33 2.48 2.40 2.37 2.28 2.07 1.90 1.88 1.91 2.04 2.19 2.17 2.24 2.30 2.41 2.54 2.33 2.46 2.51 2.40 2.49 2.70 2.66 2.47 2.55 2.52 2.64 2.86 3.09 2.94
0.87 1.11 1.39 1.40 1.20 1.02 1.00 1.14 1.52 1.87 2.14 2.33 2.41 2.27 2.21 2.15 2.15 2.14 2.06 2.03 2.04 2.01 2.02 2.13 2.19 2.16 2.21 2.31 2.43 2.24 2.32 2.33 2.37 2.38 2.52 2.59 2.80 2.82 2.78 2.93 2.98 3.03 3.09
0.97 1.02 1.19 1.34 1.24 1.15 1.12 1.31 1.59 1.77 1.90 2.02 2.07 2.04 2.04 2.04 1.96 1.91 1.97 2.03 1.96 1.88 1.94 1.99 1.98 1.90 2.02 2.20 2.22 2.11 2.21 2.29 2.28 2.45 2.71 2.65 2.78 2.86 2.95 3.13 2.93 2.99 3.32
0.82 0.86 0.99 1.13 1.24 1.21 1.24 1.45 1.69 1.72 1.74 1.73 1.81 1.82 1.85 1.84 1.80 1.79 1.84 1.93 1.96 1.96 1.97 1.95 1.88 1.86 1.93 2.04 2.02 2.19 2.33 2.37 2.43 2.60 2.72 2.81 3.12 2.96 3.01 3.03 2.92 2.94 3.18
0.84 0.84 0.93 1.12 1.20 1.27 1.29 1.34 1.54 1.69 1.67 1.63 1.74 1.90 1.98 2.03 2.01 1.93 1.97 2.08 2.20 2.18 2.22 2.19 2.20 2.23 2.18 2.17 2.25 2.39 2.49 2.53 2.56 2.72 2.79 2.85 2.98 3.07 3.26 3.27 3.30 3.44 3.59
0.86 0.86 0.93 1.11 1.25 1.42 1.48 1.47 1.50 1.59 1.74 1.88 1.99 2.26 2.43 2.43 2.30 2.24 2.32 2.35 2.40 2.33 2.51 2.52 2.54 2.64 2.59 2.38 2.56 2.65 2.64 2.85 2.80 2.85 2.80 2.78 2.99 3.11 3.29 3.13 3.32 3.67 3.83
0.86 0.82 0.91 1.12 1.19 1.24 1.34 1.38 1.45 1.56 1.66 1.76 1.92 2.18 2.42 2.55 2.49 2.53 2.68 2.69 2.62 2.70 2.82 2.79 2.78 2.74 2.42 2.63 2.80 2.81 2.91 3.01 2.96 2.91 2.94 2.88 2.89 2.80 2.81 2.85 3.00 3.28 3.45
0.91 0.89 0.88 1.00 1.23 1.18 1.19 1.32 1.45 1.64 1.83 2.07 2.27 2.40 2.60 2.74 2.70 2.61 2.63 2.65 2.68 2.69 2.76 2.80 2.86 2.68 2.65 2.79 2.62 2.65 2.64 2.74 2.85 2.91 2.95 2.69 2.52 2.66 2.48 2.64 2.76 2.73 2.76
1.20 1.23 1.28 1.28 1.37 1.33 1.34 1.45 1.60 1.81 1.93 2.06 2.27 2.43 2.63 2.72 2.79 2.83 2.78 2.85 2.97 3.00 3.02 3.00 2.97 2.88 2.72 2.71 2.50 2.61 2.47 2.49 2.54 2.62 2.70 2.66 2.53 2.50 2.61 2.62 2.49 2.24 2.16
1.27 1.38 1.44 1.47 1.48 1.55 1.70 1.89 1.96 2.15 2.33 2.44 2.61 2.70 2.72 2.78 2.82 2.85 2.99 3.12 3.23 3.22 3.23 3.19 3.15 3.10 3.08 3.06 2.73 2.65 2.45 2.50 2.50 2.57 2.61 2.57 2.39 2.53 2.49 2.41 2.34 2.18 2.00
1.40 1.48 1.50 1.56 1.76 1.82 1.89 2.07 2.30 2.47 2.66 2.82 2.93 3.00 3.04 3.03 2.99 2.99 3.10 3.18 3.24 3.25 3.26 3.13 3.15 3.09 3.05 3.17 2.91 2.72 2.44 2.48 2.52 2.64 2.67 2.66 2.44 2.50 2.44 2.32 2.30 2.15 2.06
1.61 1.63 1.67 1.77 1.89 1.96 2.04 2.22 2.51 2.76 2.97 3.01 3.06 3.12 3.21 3.36 3.48 3.51 3.33 3.18 3.18 3.26 3.30 3.26 3.29 3.27 3.19 3.18 2.80 2.65 2.51 2.54 2.60 2.57 2.52 2.55 2.60 2.34 2.17 2.06 2.00 2.07 2.20
1.78 1.81 1.85 1.89 1.92 2.05 2.20 2.31 2.57 2.72 2.91 2.95 3.07 3.15 3.18 3.12 3.15 3.43 3.53 3.49 3.38 3.25 3.23 3.28 3.18 3.07 3.01 2.85 2.51 2.28 2.27 2.36 2.40 2.42 2.43 2.48 2.48 2.20 1.96 1.73 1.67 1.77 1.81
1.75 1.75 1.81 1.94 1.93 1.96 2.16 2.44 2.52 2.59 2.64 2.76 2.89 3.10 3.20 3.27 3.25 3.26 3.36 3.37 3.29 3.08 2.86 2.87 2.89 2.87 2.86 2.75 2.43 2.12 2.04 2.08 2.02 2.11 2.35 2.41 2.26 2.05 1.88 1.76 1.70 1.62 1.53
1.72 1.77 1.73 1.76 1.87 1.98 2.17 2.28 2.31 2.45 2.69 2.81 2.85 2.94 3.03 3.07 3.16 3.25 3.22 3.16 3.11 3.02 2.84 2.81 2.83 2.84 2.76 2.55 2.26 2.09 2.00 1.97 1.92 2.02 2.24 2.33 2.32 2.15 1.99 1.87 1.70 1.51 1.48
1.63 1.72 1.81 1.85 1.91 1.99 2.15 2.31 2.35 2.39 2.53 2.60 2.57 2.66 2.83 2.93 3.00 3.14 3.20 3.05 2.92 2.91 2.78 2.81 2.98 2.89 2.63 2.44 2.27 2.03 1.94 1.94 2.03 2.11 2.19 2.34 2.38 2.34 2.22 2.04 1.90 1.75 1.63
1.59 1.74 1.82 1.91 1.96 2.01 2.08 2.11 2.16 2.30 2.46 2.54 2.56 2.55 2.61 2.76 2.86 2.82 2.88 2.92 2.68 2.60 2.41 2.43 2.51 2.50 2.39 2.27 2.17 2.05 1.98 1.95 2.00 1.97 2.02 2.29 2.36 2.38 2.35 2.22 2.04 1.87 1.76